Regional Weather Roundup
Issued by NWS

Home | Current Version | Previous Version | Graphics & Text | Print | Product List | Glossary On
Versions: 1 2 3 4 5 6 7 8 9 10 11 12 13 14 15 16 17 18 19 20 21 22 23 24 25 26 27 28 29 30 31 32 33 34 35 36 37 38 39 40 41 42 43 44 45 46 47 48 49 50
444
ASUS43 KLOT 291609
RWRIL

ILLINOIS REGIONAL WEATHER ROUNDUP
NATIONAL WEATHER SERVICE CHICAGO/ROMEOVILLE IL
1100 AM CDT THU SEP 29 2016

NOTE: "FAIR" INDICATES FEW OR NO CLOUDS BELOW 12,000 FEET WITH NO
SIGNIFICANT WEATHER AND/OR OBSTRUCTIONS TO VISIBILITY.

* THESE STATIONS ARE NOT UNDER NWS QUALITY CONTROL. THEY ALSO MAY NOT
  REPORT WEATHER SUCH AS PRECIPITATION OR FOG.

ILZ001-002-007-009-015-016-024-291700-
NORTHWEST ILLINOIS

CITY           SKY/WX    TMP DP  RH WIND       PRES   REMARKS
MOLINE         SUNNY     64  51  62 N13       30.27S
STERLING*      PTSUNNY   65  55  70 N17       30.25S
SAVANNA*       SUNNY     64  53  68 N13       30.28S
$$

ILZ003-004-008-010-011-017-018-291700-
NORTH CENTRAL ILLINOIS

CITY           SKY/WX    TMP DP  RH WIND       PRES   REMARKS
ROCKFORD       MOSUNNY   67  56  67 N20G30    30.25F
FREEPORT*      MOSUNNY   62  53  73 N16G22    30.29S
ROCHELLE*      CLOUDY    64  55  74 N15G23    30.23S
DE KALB*       PTSUNNY   65  56  71 N17G30    30.21F
$$

ILZ005-006-012>014-019>023-291700-
NORTHEAST ILLINOIS

CITY           SKY/WX    TMP DP  RH WIND       PRES   REMARKS
CHICAGO-OHARE  CLOUDY    63  57  81 NE12G23   30.17R
CHICAGO-MIDWAY CLOUDY    65  58  78 NE16G24   30.16R
AURORA         PTSUNNY   67  56  67 N24G31    30.18S
LANSING*       CLOUDY    62  60  95 NE8       30.15R
JOLIET*        RAIN      64  60  89 NE8       30.16R
WAUKEGAN       CLOUDY    62  57  83 N17G26    30.21R
DUPAGE AIRPORT LGT RAIN  63  56  78 N20G26    30.18R
KANKAKEE*      CLOUDY    62  59  90 NE5       30.15R
WHEELING       CLOUDY    62  57  83 N15       30.20R
MORRIS*        LGT RAIN  63  57  82 N7        30.16R
ROMEOVILLE*    CLOUDY    63  61  94 NE16G22   30.16R
NORTHERLY ISL    N/A     62  57  83 NE20        N/A
$$

LMZ740>746-291700-
SOUTHERN LAKE MICHIGAN

STATION/POSITION SKY/WX   TEMP    WIND        PRES    VSBY  WAVE
                          AIR SEA DIR/SP/G                  HT/PER
                          (F)     (DEG/KT/KT) (MB)    (MI)  (FT/S)
SOUTHERN BUOY              64 69   40/ 21/ 27 1021.7R         7/ 8
WILMETTE HARBOR            62 54   60/ 17/ 23   N/A           9/ 7
HARRISON CRIB              64      40/ 26/ 28   N/A
BURNHAM HARBOR             63      40/ 15/ 20   N/A
CALUMET HARBOR             63      30/ 16/ 25 1020.7R
BURNS HARBOR               62      40/ 21/ 26 1021.0R
MICHIGAN CITY              60      10/ 21/ 23   N/A
MICHIGAN CITY 6N           62 65   30/ 17/ 23   N/A           7/ 8
ST. JOSEPH                 61 64   30/ 16/ 19 1021.0          5/ 7
$$

ILZ025>027-034>036-040-047-049-050-058-095>099-291700-
WEST-CENTRAL ILLINOIS

CITY           SKY/WX    TMP DP  RH WIND       PRES   REMARKS
QUINCY         PTSUNNY   61  52  72 N14       30.26S
GALESBURG*     MOSUNNY   62  53  72 NW15      30.25S
MACOMB*        MOSUNNY   62  52  71 N16G22    30.27F
JACKSONVILLE*  CLOUDY    62  53  73 NW12      30.21R
PITTSFIELD*    CLOUDY    59  53  79 N13G20    30.26R
$$

ILZ028>032-037-038-041>044-048-051>054-059>061-291700-
CENTRAL ILLINOIS

CITY           SKY/WX    TMP DP  RH WIND       PRES   REMARKS
PONTIAC        LGT RAIN  63  60  91 N13G25    30.15S
DECATUR        CLOUDY    64  54  69 N12       30.14S
PEORIA         PTSUNNY   65  55  70 N12G22    30.19R
LACON*         PTSUNNY   66  53  62 N13G22    30.18F
LINCOLN*       CLOUDY    62  59  91 NW7       30.16F
SPRINGFIELD    CLOUDY    62  57  83 N8G17     30.18S
TAYLORVILLE    CLOUDY    63  54  72 N15       30.15S
$$

ILZ033-039-045-046-055>057-062-063-291700-
EAST-CENTRAL ILLINOIS

CITY           SKY/WX    TMP DP  RH WIND       PRES   REMARKS
CHAMPAIGN      CLOUDY    63  55  75 N9        30.13R
RANTOUL*       CLOUDY    62  58  86 NE7       30.13F
MATTOON        MOSUNNY   63  53  70 NE15      30.11S
PARIS*         PTSUNNY   64  55  72 N3        30.12S
$$

ILZ079-100>102-291700-
SOUTHWEST ILLINOIS

CITY           SKY/WX    TMP DP  RH WIND       PRES   REMARKS
ALTON          CLOUDY    59  54  82 NW9       30.19R
BELLEVILLE     MOSUNNY   62  55  78 N10G20    30.16R
CAHOKIA*       CLOUDY    61  52  72 NW15      30.20R
SPARTA*        CLOUDY    59  53  81 NW12      30.17R
$$

ILZ064>066-069>071-074>076-080>082-084>086-088>090-092>094-291700-
SOUTH-CENTRAL ILLINOIS

CITY           SKY/WX    TMP DP  RH WIND       PRES   REMARKS
CARBONDALE     CLOUDY    59  54  83 NW13      30.15R
CAIRO*         CLOUDY    60  53  78 NW12      30.15S
EFFINGHAM*     CLOUDY    63  55  75 N9        30.14R
MARION         CLOUDY    59  55  88 NW12      30.14R
MT. VERNON     CLOUDY    57  52  82 N3        30.14R
CENTRALIA*     CLOUDY    62  56  81 N12       30.13R
SALEM*         CLOUDY    63  58  82 N9        30.13R
METROPOLIS*    CLOUDY    58  53  83 NW8       30.14R
$$

ILZ067-068-072-073-078-083-087-091-291700-
SOUTHEAST ILLINOIS

CITY           SKY/WX    TMP DP  RH WIND       PRES   REMARKS
LAWRENCEVILLE  PTSUNNY   61  54  77 NE10      30.10R
FLORA*         CLOUDY    62  55  76 N6        30.12R
FAIRFIELD*     PTSUNNY   63  54  72 N8        30.10R
HARRISBURG*    CLOUDY    60  55  85 N8        30.12R
ROBINSON*      MOSUNNY   63  53  72 NE9       30.11S
CARMI*         CLOUDY    62  55  79 N9        30.10R
$$

ABBREVIATIONS USED IN REMARKS
   TC - TEMPERATURE IN CELSIUS
  WCI - WIND CHILL INDEX
   HX - HEAT INDEX
  VSB - VISIBILITY
$$





USA.gov is the U.S. government's official web portal to all federal, state and local government web resources and services.